Hourly Data Report for June 13, 2021

DRYDEN REGIONAL
ONTARIO
Current Station Operator: NAVCAN

49°49'39.000" N
92°44'39.000" W
412.70 m
6032125
71527
YHD

Download Data

Hourly Data (June 2021)
Hourly Data Report for June 13, 2021
TIME
LST
Temp Definition
°C
Dew Point Definition
°C
Rel Hum Definition
%
Precip. Amount Definition
mm

Wind Dir Definition
10's deg

Wind Spd Definition
km/h
Visibility Definition
km
Stn Press Definition
kPa
Hmdx Definition


Wind Chill Definition


Weather Definition


00:00 15.0 8.1 63 0.0 21 13 16.1 96.45     LegendNANA
01:00 14.4 8.0 65 0.0 21 11 16.1 96.45     LegendNANA
02:00 14.6 8.2 65 0.0 22 8 16.1 96.46     LegendNANA
03:00 14.1 8.6 69 0.0 20 11 16.1 96.45     LegendNANA
04:00 14.1 9.8 75 0.0 21 15 16.1 96.47     LegendNANA
05:00 14.7 10.9 78 0.0 20 13 16.1 96.46     LegendNANA
06:00 13.8 11.1 84 0.0 24 13 16.1 96.62     LegendNANA
07:00 14.8 10.9 77 0.0 28 17 16.1 96.68     LegendNANA
08:00 12.9 11.4 90 1.8 28 18 12.9 96.86     Moderate Rain
09:00 13.3 11.6 90 1.8 22 15 16.1 96.67     LegendNANA
10:00 17.1 12.7 75 0.0 24 13 16.1 96.60     LegendNANA
11:00 17.9 13.3 74 0.0 26 8 16.1 96.59     LegendNANA
12:00 21.4 12.8 58 0.0 28 18 16.1 96.55     LegendNANA
13:00 22.3 10.9 48 0.0 29 22 16.1 96.51     LegendNANA
14:00 22.1 9.8 45 0.0 30 15 16.1 96.51     Thunderstorms
15:00 18.0 10.8 62 0.0 26 22 16.1 96.54     Thunderstorms,Rain
16:00 21.1 10.5 50 0.0 36 8 16.1 96.52     LegendNANA
17:00 16.1 11.5 74 1.8 32 11 16.1 96.49     Rain
18:00 17.8 13.8 77 0.2 26 5 16.1 96.51     LegendNANA
19:00 17.8 14.5 81 0.0 23 9 16.1 96.55     LegendNANA
20:00 16.8 14.1 84 0.0 23 9 16.1 96.55     LegendNANA
21:00 15.9 13.5 86 0.0 23 11 16.1 96.62     LegendNANA
22:00 14.7 12.6 87 0.0 23 9 16.1 96.63     LegendNANA
23:00 14.1 10.9 81 0.0 26 11 16.1 96.62     LegendNANA

Notes on Data Quality.

Legend

  • E = Estimated
  • M = Missing
  • NA = Not Available*
  • [empty] = Indicates an unobserved value
Date modified: